Location: Chevoux
(46.3801°N, 4.9476°E)
Time: 12:10:33
(UTC+00:00)

Cosmos 1346 Rocket - Pass Details

Date: 28 January 2021
Orbit: 531 x 546 km, 81.2° (Epoch: 06 March)

Event Time Altitude Azimuth Distance (km) Brightness Sun altitude
Rises 18:04:54 0° 181° (S) 2,662 6.5 -14.9°
Reaches altitude 10° 18:07:03 10° 178° (S) 1,779 5.5 -15.3°
Maximum altitude 18:10:55 61° 97° (E) 608 2.7 -15.9°
Enters shadow 18:14:45 10° 18° (NNE) 1,771 5.1 -16.6°
